Location: Potomac
(46.8816°N, 113.5795°W)
Time: 15:20:05
(UTC+00:00)

Oscar 19 - Visible Passes

Search period start: 26 June 2022 00:00
Search period end: 06 July 2022 00:00
Orbit: 772 x 790 km, 98.8° (Epoch: 26 June)

Date Brightness Start Highest point End Pass type
(mag) Time Alt. Az. Time Alt. Az. Time Alt. Az.
26 Jun 13.1 09:51:48 10° NE 09:54:55 16° E 09:57:59 10° SE visible
27 Jun 11.2 10:57:37 10° NNE 11:02:42 60° ESE 11:07:45 10° S visible
28 Jun 12.2 10:25:57 10° NNE 10:30:31 31° E 10:35:03 10° SSE visible
29 Jun 13.0 09:54:53 10° NE 09:58:10 17° E 10:01:25 10° SE visible
30 Jun 11.1 11:00:50 10° NNE 11:05:56 64° ESE 11:11:00 10° S visible
01 Jul 12.1 10:29:08 10° NNE 10:33:46 33° E 10:38:21 10° SSE visible
02 Jul 13.0 09:57:59 10° NE 10:01:25 18° E 10:04:51 10° SE visible
03 Jul 11.0 11:04:02 10° NNE 11:09:10 67° ESE 11:14:15 10° S visible
04 Jul 12.0 10:32:18 10° NNE 10:37:00 35° E 10:41:40 10° SSE visible
05 Jul 12.9 10:01:04 10° NE 10:04:41 19° E 10:08:15 10° SE visible
